Location: Unspecified
(35.6961°N, 0.0000°E)
Time: 13:47:17
(UTC+00:00)

ISS - Pass Details

Date: 29 April 2019
Orbit: 407 x 410 km, 51.6° (Epoch: 23 May)

Event Time Altitude Azimuth Distance (km) Brightness Sun altitude
Exits shadow 04:06:22 22° 226° (SW) 937 -2.6 -12.8°
Maximum altitude 04:08:20 87° 137° (SE) 414 -3.8 -12.5°
Drops below altitude 10° 04:11:39 10° 49° (NE) 1,477 0.4 -11.9°
Sets 04:13:45 0° 49° (NE) 2,342 1.8 -11.5°
